Cairo, Egypt

3:27 PM EET on October 20, 2017 (GMT +0200)
Cairo International Airport

Weather History for HECA - September, 2012

Change the Weather History Date:

Tuesday, September 25, 2012

  Actual Average Record
Temperature  
Mean Temperature 78 °F -  
Max Temperature 89 °F 84 °F 100 °F (2008)
Min Temperature 67 °F 65 °F 67 °F (2012)
Cooling Degree Days 13    
Growing Degree Days 28 (Base 50)    
Moisture  
Dew Point 60 °F    
Average Humidity 56    
Maximum Humidity 78    
Minimum Humidity 31    
Precipitation  
Precipitation 0.00 in 0.00 in - ()
Sea Level Pressure  
Sea Level Pressure 29.89 in    
Wind  
Wind Speed 7 mph ()    
Max Wind Speed 13 mph    
Max Gust Speed -    
Visibility 4.8 miles    
Events      
Averages and records for this station are not official NWS values.
T = Trace of Precipitation, MM = Missing Value Source: Averaged Metar Reports

Daily Weather History Graph

Daily Weather History Graph

Search for Another Location

Airport or City:

Trip Planner

Search our weather history database for the weather conditions in past years. The results will help you decide how hot, cold, wet, or windy it might be!

Date:

Astronomy

Sep. 25, 2012 Rise Set
Actual Time 5:44 AM EET 5:46 PM EET
Civil Twilight 5:20 AM EET 6:10 PM EET
Nautical Twilight 4:52 AM EET 6:38 PM EET
Astronomical Twilight 4:24 AM EET 7:06 PM EET
Moon 2:43 PM EET (9/25) 1:02 AM EET (9/25)
Length of Visible Light 12h 50m
Length of Day
12h 02m
Waxing Gibbous, 77% of the Moon is Illuminated
Sep 25
Waxing Gibbous
Sep 30
Full
Oct 8
Last Quarter
Oct 15
New
Oct 22
First Quarter

Hourly Weather History & Observations

Time (EET) Temp. Heat Index Dew Point Humidity Pressure Visibility Wind Dir Wind Speed Gust Speed Precip Events Conditions
12:00 AM 73.4 °F - 62.6 °F 69% 29.92 in - NE 6.9 mph - N/A   Clear
12:30 AM 71.6 °F - 62.6 °F 73% 29.89 in - NE 5.8 mph - N/A   Clear
1:00 AM 71.6 °F - 60.8 °F 69% 29.89 in - NE 4.6 mph - N/A   Clear
1:30 AM 71.6 °F - 60.8 °F 69% 29.89 in - NE 4.6 mph - N/A   Clear
2:00 AM 71 °F - 62 °F 64% 29.89 in 6 mi NE 5.8 mph - -  
2:00 AM 71.6 °F - 60.8 °F 69% 29.89 in - NE 5.8 mph - N/A   Clear
2:30 AM 69.8 °F - 60.8 °F 73% 29.89 in - NNE 4.6 mph - N/A   Clear
3:00 AM 69.8 °F - 60.8 °F 73% 29.89 in - NNE 4.6 mph - N/A   Clear
3:30 AM 69.8 °F - 60.8 °F 73% 29.89 in - NNE 4.6 mph - N/A   Clear
4:00 AM 69.8 °F - 60.8 °F 73% 29.86 in - NE 4.6 mph - N/A   Clear
4:30 AM 69.8 °F - 60.8 °F 73% 29.86 in - NE 5.8 mph - N/A   Clear
5:00 AM 68.0 °F - 60.8 °F 78% 29.89 in 3.7 mi NE 4.6 mph - N/A   Unknown
5:30 AM 68.0 °F - 60.8 °F 78% 29.89 in 2.5 mi ENE 4.6 mph - N/A   Mist
6:00 AM 68.0 °F - 60.8 °F 78% 29.89 in 2.5 mi ENE 4.6 mph - N/A   Mist
6:30 AM 69.8 °F - 62.6 °F 78% 29.89 in 1.2 mi NE 3.5 mph - N/A   Mist
7:00 AM 69.8 °F - 62.6 °F 78% 29.89 in 1.2 mi ENE 3.5 mph - N/A   Mist
7:30 AM 71.6 °F - 62.6 °F 73% 29.89 in 1.2 mi NE 3.5 mph - N/A   Mist
8:00 AM 72 °F - 62 °F 64% 29.91 in 2 mi NNE 4.6 mph - -   Mist
8:00 AM 71.6 °F - 62.6 °F 73% 29.92 in 2.5 mi NNE 4.6 mph - N/A   Partly Cloudy
8:30 AM 73.4 °F - 60.8 °F 65% 29.92 in 3.7 mi NE 3.5 mph - N/A   Scattered Clouds
9:00 AM 73.4 °F - 60.8 °F 65% 29.92 in 6.2 mi NNE 9.2 mph - N/A   Scattered Clouds
9:30 AM 75.2 °F - 60.8 °F 61% 29.92 in 6.2 mi NE 9.2 mph - N/A   Scattered Clouds
10:00 AM 77.0 °F - 59.0 °F 54% 29.92 in 6.2 mi NNE 10.4 mph - N/A   Scattered Clouds
10:30 AM 78.8 °F - 57.2 °F 47% 29.92 in 6.2 mi NNE 9.2 mph - N/A   Scattered Clouds
11:00 AM 80.6 °F 81.8 °F 62.6 °F 54% 29.92 in 6.2 mi NNE 8.1 mph - N/A   Scattered Clouds
11:30 AM 80.6 °F 80.8 °F 57.2 °F 45% 29.89 in 6.2 mi NNW 8.1 mph - N/A   Scattered Clouds
12:00 PM 82.4 °F 82.0 °F 57.2 °F 42% 29.89 in 6.2 mi NNE 8.1 mph - N/A   Scattered Clouds
12:30 PM 82.4 °F 81.4 °F 53.6 °F 37% 29.89 in 6.2 mi NNW 9.2 mph - N/A   Scattered Clouds
1:00 PM 84.2 °F 83.0 °F 55.4 °F 37% 29.86 in 6.2 mi North 8.1 mph - N/A   Scattered Clouds
1:30 PM 86.0 °F 84.9 °F 57.2 °F 37% 29.86 in 6.2 mi NW 5.8 mph - N/A   Scattered Clouds
2:00 PM 87 °F - 61 °F 32% 29.87 in 6 mi North 9.2 mph - -   Partly Cloudy
2:00 PM 87.8 °F 87.6 °F 60.8 °F 40% 29.86 in 6.2 mi North 9.2 mph - N/A   Scattered Clouds
2:30 PM 86.0 °F 84.2 °F 53.6 °F 33% 29.86 in 6.2 mi NNW 11.5 mph - N/A   Scattered Clouds
3:00 PM 86.0 °F 84.5 °F 55.4 °F 35% 29.86 in 6.2 mi NW 11.5 mph - N/A   Scattered Clouds
3:30 PM 86.0 °F 84.5 °F 55.4 °F 35% 29.86 in - NW 11.5 mph - N/A   Clear
4:00 PM 86.0 °F - 51.8 °F 31% 29.83 in - North 10.4 mph - N/A   Clear
4:30 PM 86.0 °F 84.5 °F 55.4 °F 35% 29.86 in - North 10.4 mph - N/A   Clear
5:00 PM 86.0 °F 85.4 °F 59.0 °F 40% 29.86 in - NNW 12.7 mph - N/A   Clear
5:30 PM 86.0 °F 85.4 °F 59.0 °F 40% 29.86 in - NNW 12.7 mph - N/A   Clear
6:00 PM 84.2 °F 83.8 °F 59.0 °F 42% 29.86 in - NNW 11.5 mph - N/A   Clear
6:30 PM 84.2 °F 83.8 °F 59.0 °F 42% 29.86 in - NNW 11.5 mph - N/A   Clear
7:00 PM 82.4 °F 82.5 °F 59.0 °F 45% 29.89 in - NNW 11.5 mph - N/A   Clear
7:30 PM 82.4 °F 82.5 °F 59.0 °F 45% 29.89 in - NNW 11.5 mph - N/A   Clear
8:00 PM 81 °F - 58 °F 35% 29.88 in 6 mi North 12.7 mph - -  
8:00 PM 80.6 °F 81.1 °F 59.0 °F 48% 29.89 in - North 12.7 mph - N/A   Clear
8:30 PM 80.6 °F 81.1 °F 59.0 °F 48% 29.89 in - North 12.7 mph - N/A   Clear
9:00 PM 77.0 °F - 59.0 °F 54% 29.92 in - NE 11.5 mph - N/A   Clear
9:30 PM 77.0 °F - 59.0 °F 54% 29.92 in - NE 11.5 mph - N/A   Clear
10:00 PM 75.2 °F - 60.8 °F 61% 29.92 in - NE 10.4 mph - N/A   Clear
10:30 PM 75.2 °F - 60.8 °F 61% 29.92 in - NE 9.2 mph - N/A   Clear
11:00 PM 75.2 °F - 62.6 °F 65% 29.92 in - NNE 8.1 mph - N/A   Clear
11:30 PM 73.4 °F - 62.6 °F 69% 29.92 in - NE 8.1 mph - N/A   Clear